Regional Weather Roundup
Issued by NWS

Home | Current Version | Previous Version | Graphics & Text | Print | Product List | Glossary On
Versions: 1 2 3 4 5 6 7 8 9 10 11 12 13 14 15 16 17 18 19 20 21 22 23 24 25 26 27 28 29 30 31 32 33 34 35 36 37 38 39 40 41 42 43 44 45 46 47 48 49 50
000
ASUS43 KLOT 210700
RWRIL

ILLINOIS REGIONAL WEATHER ROUNDUP
NATIONAL WEATHER SERVICE CHICAGO/ROMEOVILLE IL
200 AM CDT SUN SEP 21 2014

NOTE: "FAIR" INDICATES FEW OR NO CLOUDS BELOW 12,000 FEET WITH NO
SIGNIFICANT WEATHER AND/OR OBSTRUCTIONS TO VISIBILITY.

* THESE STATIONS ARE NOT UNDER NWS QUALITY CONTROL. THEY ALSO MAY NOT
  REPORT WEATHER SUCH AS PRECIPITATION OR FOG.

ILZ001-002-007-009-015-016-024-210800-
NORTHWEST ILLINOIS

CITY           SKY/WX    TMP DP  RH WIND       PRES   REMARKS
MOLINE         CLEAR     62  53  72 NW17G23   29.90R
STERLING*      PTCLDY    63  55  77 NW17      29.84R
$$

ILZ003-004-008-010-011-017-018-210800-
NORTH CENTRAL ILLINOIS

CITY           SKY/WX    TMP DP  RH WIND       PRES   REMARKS
ROCKFORD       PTCLDY    62  57  83 W14       29.81R
ROCHELLE*      PTCLDY    62  58  86 NW18G30   29.81R
$$

ILZ005-006-012>014-019>023-210800-
NORTHEAST ILLINOIS

CITY           SKY/WX    TMP DP  RH WIND       PRES   REMARKS
CHICAGO-OHARE  MOCLDY    65  62  90 W10       29.72R
CHICAGO-MIDWAY MOCLDY    67  62  84 W13       29.72R
AURORA         PTCLDY    64  58  80 W16G22    29.77R
LANSING*       MOCLDY    68  66  93 W10       29.72F
WAUKEGAN       CLOUDY    63  60  90 VRB7      29.70R
DUPAGE AIRPORT   N/A     64  60  87 W10       29.74R
WHEELING       MOCLDY    67  63  87 W9        29.72S
NORTHERLY ISL    N/A     67  60  78 W7          N/A
$$

LMZ740>746-210800-
SOUTHERN LAKE MICHIGAN

STATION/POSITION SKY/WX   TEMP    WIND        PRES    VSBY  WAVE
                          AIR SEA DIR/SP/G                  HT/PER
                          (F)     (DEG/KT/KT) (MB)    (MI)  (FT/S)
SOUTHERN BUOY              66 64  210/ 10/ 12 1004.2F         1/ 3
WAUKEGAN HARBOR            65     270/ 11/ 14   N/A
HARRISON CRIB              68     260/ 33/ 42   N/A
BURNHAM HARBOR             67     270/  6/ 11   N/A
CALUMET HARBOR             66     220/  8/ 12 1005.0F
MICHIGAN CITY              69     190/ 17/ 22   N/A
MICHIGAN CITY 6N           67 66  250/ 17/ 27   N/A           3/ 3
ST. JOSEPH                 68 65  210/ 19/ 33   N/A           3/ 3
$$

ILZ025>027-034>036-040-047-049-050-058-095>099-210800-
WEST-CENTRAL ILLINOIS

CITY           SKY/WX    TMP DP  RH WIND       PRES   REMARKS
QUINCY         PTCLDY    71  67  87 NW13      29.92R
GALESBURG*     PTCLDY    64  57  79 NW13G21   29.90R
MACOMB*        CLEAR     67  62  85 NW12G17   29.92R
$$

ILZ028>032-037-038-041>044-048-051>054-059>061-210800-
CENTRAL ILLINOIS

CITY           SKY/WX    TMP DP  RH WIND       PRES   REMARKS
DECATUR        CLEAR     71  68  90 SW9       29.85S
PEORIA         CLEAR     71  64  78 W8        29.85R
SPRINGFIELD    CLEAR     71  68  90 W8        29.85F
TAYLORVILLE    NOT AVBL
$$

ILZ033-039-045-046-055>057-062-063-210800-
EAST-CENTRAL ILLINOIS

CITY           SKY/WX    TMP DP  RH WIND       PRES   REMARKS
CHAMPAIGN      CLEAR     69  67  93 SW9       29.84S FOG
MATTOON        MOCLDY    70  69  97 SW7       29.85F
$$

ILZ079-100>102-210800-
SOUTHWEST ILLINOIS

CITY           SKY/WX    TMP DP  RH WIND       PRES   REMARKS
BELLEVILLE     MOCLDY    72  68  89 S1        29.90S
CAHOKIA*       PTCLDY    74  68  81 SW5       29.90S
SPARTA*        CLEAR     72  68  87 SW6       29.94S
$$

ILZ064>066-069>071-074>076-080>082-084>086-088>090-092>094-210800-
SOUTH-CENTRAL ILLINOIS

CITY           SKY/WX    TMP DP  RH WIND       PRES   REMARKS
CARBONDALE     PTCLDY    71  67  87 SW7       29.94S
MT. VERNON     PTCLDY    68  64  88 SW7       29.91F
$$

ILZ067-068-072-073-078-083-087-091-210800-
SOUTHEAST ILLINOIS

CITY           SKY/WX    TMP DP  RH WIND       PRES   REMARKS
LAWRENCEVILLE  MOCLDY    73  67  81 SW14      29.87F
ROBINSON*      MOCLDY    74  69  85 SW9       29.87S
$$

ABBREVIATIONS USED IN REMARKS
   TC - TEMPERATURE IN CELSIUS
  WCI - WIND CHILL INDEX
   HX - HEAT INDEX
  VSB - VISIBILITY
$$




USA.gov is the U.S. government's official web portal to all federal, state and local government web resources and services.